CZ-6A DEB, 55550

Orbit data source: Space-Track

CZ-6A DEB, 55550 is space debris in SSO originally from a launch on Fri, 11 Nov 2022 UTC launched from the Taiyaun Space Center, China (TSC). Debris objects in space refer to the collection of defunct objects orbiting the Earth. Examples of debris include non-operational satellites, rocket bodies, and fragments generated from explosions, collisions, or faulty payload assembly.

Loading next visibility...
Identifier
55550, 2022-151YY
Orbit
SSO
Country
Flag of CNCN / PRC
Related business
Manufacturer
SAST
Mission
Spacecraft
Bus & Motor
Unknown
Mass
Unknown
Launch date (UTC)
2022-11-11 (4 years ago)
Launch vehicle
Unknown
Launch site
Taiyaun Space Center, China (TSC)
Object type
Payload
Rocket body
Debris
Shape & HBR
Unknown shape, 0.1 m
Radar Cross Section
Small (<0.1 m²)

Expand to show TLE details & history
Last TLE update: 9 hours ago

TLE from 9 hours ago
0 CZ-6A DEB
1 55550U 22151YY  26263.17189919  .00006391  00000-0  92244-3 0  9998
2 55550  98.6212 336.6842 0070557 340.2294  19.6181 14.74923646198112
Epoch: 2026-09-20T04:07Z
TLE epoch observation values (Epoch: 2026-09-20T04:07:32.090Z)
Latitude
0.00006°
Longitude
-84.26942°
Altitude
601.737 km
Speed
7.584 km/s
True Right ascension
22h 26m 44s
True Declination
0° 00' 00"
Sunlit
Object was in full shadow at epoch
Visualization orbit readout
Latitude
Unknown
Longitude
Unknown
Altitude
Unknown
Speed
Unknown
Apparent Right ascension
Unknown
Apparent Declination
Unknown
Sunlit
N/A
Visualization observer readout
Local Sidereal Time
06:08:38
Azimuth
Unknown
Elevation
Unknown
Doppler factor
Unknown
Orbital elements
Apogee altitude
692.01 km
Perigee altitude
592.939 km
Semi-major axis
7,020.612 km
Eccentricity
0.00706
Inclination
98.6212°
RAAN
336.6842°
Arg. of periapsis
340.2294°
True anomaly
19.89183°
Mean anomaly
19.6181°
Eccentric anomaly
19.75474°
Mean motion
3.68961 °/min
Orbital period
97.57 mins
BSTAR
0.00092244
Loading maneuver chart data...
Computing Atmospheric mass density...
Loading historical data...
Loading historical data...
Loading historical data...
Loading historical data...
Loading historical data...
Loading historical data...
Loading historical data...

Documentation

Showing up to 5 results
|